Meriden, CT

3:22 AM EDT on September 25, 2017 (GMT -0400)
Meriden Markham Municipal

Weather History for KMMK - August, 2013

Change the Weather History Date:

Thursday, August 22, 2013

  Actual Average (KOXC) Record (KOXC)
Temperature  
Mean Temperature 70 °F -  
Max Temperature 79 °F 75 °F 87 °F (2003)
Min Temperature 62 °F 58 °F 48 °F (2004)
Cooling Degree Days 5    
Growing Degree Days 20 (Base 50)    
Moisture  
Dew Point 66 °F    
Average Humidity 91    
Maximum Humidity 100    
Minimum Humidity 74    
Precipitation  
Precipitation 0.13 in - - ()
Sea Level Pressure  
Sea Level Pressure 30.00 in    
Wind  
Wind Speed 2 mph (South)    
Max Wind Speed 10 mph    
Max Gust Speed -    
Visibility 4 miles    
Events Fog , Rain    
Averages and records for this station are not official NWS values.
T = Trace of Precipitation, MM = Missing Value Source: NWS Daily Summary

Daily Weather History Graph

Daily Weather History Graph

Search for Another Location

Airport or City:

Trip Planner

Search our weather history database for the weather conditions in past years. The results will help you decide how hot, cold, wet, or windy it might be!

Date:

Astronomy

Aug. 22, 2013 Rise Set
Actual Time 6:07 AM EDT 7:40 PM EDT
Civil Twilight 5:38 AM EDT 8:09 PM EDT
Nautical Twilight 5:03 AM EDT 8:44 PM EDT
Astronomical Twilight 4:25 AM EDT 9:21 PM EDT
Moon 8:19 PM EDT (8/22) 7:55 AM EDT (8/22)
Length of Visible Light 14h 30m
Length of Day
13h 32m
Waning Gibbous, 97% of the Moon is Illuminated
Aug 22
Waning Gibbous
Aug 28
Last Quarter
Sep 5
New
Sep 12
First Quarter
Sep 19
Full

Hourly Weather History & Observations

Time (EDT) Temp. Dew Point Humidity Pressure Visibility Wind Dir Wind Speed Gust Speed Precip Events Conditions
12:53 AM 64.9 °F 62.1 °F 90% 30.06 in 4.0 mi Calm Calm - N/A   Clear
1:53 AM 64.9 °F 63.0 °F 93% 30.06 in 3.0 mi Calm Calm - N/A   Clear
2:21 AM 64.4 °F 62.6 °F 94% 30.07 in 1.8 mi Calm Calm - N/A   Clear
2:39 AM 64.4 °F 62.6 °F 94% 30.07 in 2.0 mi Calm Calm - N/A   Clear
2:53 AM 63.0 °F 61.0 °F 93% 30.06 in 3.0 mi Calm Calm - N/A   Clear
2:59 AM 64.4 °F 62.6 °F 94% 30.07 in 1.5 mi Calm Calm - N/A   Clear
3:27 AM 62.6 °F 60.8 °F 94% 30.06 in 0.8 mi Calm Calm - N/A   Mist
3:53 AM 63.0 °F 62.1 °F 97% 30.05 in 2.0 mi Calm Calm - N/A   Scattered Clouds
4:03 AM 62.6 °F 62.6 °F 100% 30.05 in 1.0 mi Calm Calm - N/A   Mist
4:09 AM 62.6 °F 62.6 °F 100% 30.05 in 0.2 mi Calm Calm - N/A Fog Fog
4:19 AM 62.6 °F 62.6 °F 100% 30.04 in 1.0 mi Calm Calm - N/A   Mist
4:22 AM 62.6 °F 60.8 °F 94% 30.04 in 2.0 mi Calm Calm - N/A   Scattered Clouds
4:29 AM 62.6 °F 60.8 °F 94% 30.04 in 2.5 mi Calm Calm - N/A   Mostly Cloudy
4:39 AM 64.4 °F 62.6 °F 94% 30.04 in 1.0 mi Calm Calm - N/A   Mist
4:47 AM 62.6 °F 62.6 °F 100% 30.04 in 3.0 mi Calm Calm - N/A   Scattered Clouds
4:53 AM 63.0 °F 62.1 °F 97% 30.04 in 3.0 mi Calm Calm - N/A   Scattered Clouds
5:00 AM 62.6 °F 60.8 °F 94% 30.03 in 2.0 mi Calm Calm - N/A   Partly Cloudy
5:08 AM 62.6 °F 62.6 °F 100% 30.03 in 1.8 mi Calm Calm - N/A   Scattered Clouds
5:15 AM 62.6 °F 60.8 °F 94% 30.03 in 2.5 mi Calm Calm - N/A   Partly Cloudy
5:33 AM 62.6 °F 60.8 °F 94% 30.03 in 4.0 mi Calm Calm - N/A   Partly Cloudy
5:53 AM 63.0 °F 61.0 °F 93% 30.02 in 3.0 mi Calm Calm - N/A   Clear
6:04 AM 62.6 °F 60.8 °F 94% 30.02 in 2.5 mi Calm Calm - N/A   Clear
6:24 AM 64.4 °F 62.6 °F 94% 30.02 in 1.5 mi Calm Calm - N/A   Clear
6:41 AM 64.4 °F 62.6 °F 94% 30.03 in 2.0 mi Calm Calm - N/A   Clear
6:53 AM 64.9 °F 63.0 °F 93% 30.02 in 2.0 mi Calm Calm - N/A   Scattered Clouds
7:53 AM 70.0 °F 66.9 °F 90% 30.01 in 2.5 mi Calm Calm - N/A   Mostly Cloudy
8:17 AM 71.6 °F 68.0 °F 88% 30.02 in 3.0 mi South 5.8 mph - N/A   Clear
8:48 AM 73.4 °F 69.8 °F 88% 30.01 in 3.0 mi SSE 5.8 mph - N/A   Haze
8:53 AM 73.9 °F 69.1 °F 85% 30.01 in 3.0 mi SSE 5.8 mph - N/A   Haze
9:00 AM 73.4 °F 69.8 °F 88% 30.02 in 3.0 mi South 9.2 mph - N/A   Haze
9:43 AM 75.2 °F 69.8 °F 83% 30.01 in 5.0 mi South 10.4 mph - N/A   Haze
9:53 AM 77.0 °F 69.1 °F 76% 30.01 in 6.0 mi South 6.9 mph - N/A   Haze
10:24 AM 75.2 °F 69.8 °F 83% 30.01 in 7.0 mi South 4.6 mph - N/A   Mostly Cloudy
10:53 AM 73.9 °F 70.0 °F 87% 30.01 in 5.0 mi South 8.1 mph - 0.00 in Rain Light Rain
11:10 AM 73.4 °F 71.6 °F 94% 30.02 in 2.5 mi South 5.8 mph - 0.04 in Rain Rain
11:37 AM 71.6 °F 69.8 °F 94% 30.02 in 2.0 mi South 4.6 mph - 0.12 in Rain Rain
11:53 AM 71.1 °F 69.1 °F 93% 30.02 in 5.0 mi South 8.1 mph - 0.13 in Rain Light Rain
12:06 PM 71.6 °F 69.8 °F 94% 30.02 in 7.0 mi SSE 5.8 mph - 0.00 in Rain Light Rain
12:25 PM 71.6 °F 69.8 °F 94% 30.02 in 9.0 mi Variable 3.5 mph - 0.00 in   Overcast
12:36 PM 71.6 °F 69.8 °F 94% 30.01 in 8.0 mi SSE 4.6 mph - 0.00 in   Overcast
12:53 PM 72.0 °F 70.0 °F 93% 30.00 in 8.0 mi SSE 4.6 mph - 0.00 in   Mostly Cloudy
1:37 PM 73.4 °F 69.8 °F 88% 29.98 in 8.0 mi Calm Calm - N/A   Overcast
1:53 PM 73.9 °F 71.1 °F 91% 29.97 in 9.0 mi Calm Calm - 0.00 in Rain Light Rain
2:53 PM 78.1 °F 70.0 °F 76% 29.94 in 10.0 mi WSW 3.5 mph - 0.00 in   Partly Cloudy
3:53 PM 75.9 °F 70.0 °F 82% 29.91 in 10.0 mi South 8.1 mph - 0.00 in Rain Light Rain
4:53 PM 78.1 °F 70.0 °F 76% 29.90 in 10.0 mi SSW 9.2 mph - 0.00 in   Scattered Clouds
5:19 PM 77.0 °F 69.8 °F 78% 29.89 in 10.0 mi South 6.9 mph - N/A   Mostly Cloudy
5:38 PM 78.8 °F 69.8 °F 74% 29.89 in 10.0 mi South 6.9 mph - N/A   Scattered Clouds
5:53 PM 78.1 °F 69.1 °F 74% 29.88 in 10.0 mi South 6.9 mph - N/A   Clear
6:53 PM 75.9 °F 71.1 °F 85% 29.88 in 10.0 mi South 6.9 mph - N/A   Clear
7:53 PM 73.0 °F 70.0 °F 90% 29.88 in 8.0 mi SSW 3.5 mph - N/A   Partly Cloudy
8:53 PM 72.0 °F 69.1 °F 91% 29.87 in 6.0 mi SSE 3.5 mph - N/A   Clear
9:53 PM 71.1 °F 69.1 °F 93% 29.89 in 4.0 mi South 4.6 mph - N/A   Clear
10:53 PM 70.0 °F 68.0 °F 93% 29.87 in 4.0 mi Calm Calm - N/A   Mostly Cloudy
11:20 PM 69.8 °F 69.8 °F 100% 29.88 in 4.0 mi Calm Calm - N/A   Mostly Cloudy
11:53 PM 71.1 °F 69.1 °F 93% 29.87 in 5.0 mi South 3.5 mph - N/A   Overcast